{"data":{"norad_id":41240,"intl_designator":"2016-002A","name":"JASON-3","alt_names":[],"object_type":"PAYLOAD","status":"ACTIVE","operator":null,"country":"US","launch_date":"2016-01-17","launch_site_code":"AFWTR","launch_vehicle":null,"mission":null,"orbit_class":"UNKNOWN","rcs_meters":2.7109,"size_class":null,"mass_kg":null,"dimensions":null,"purposes":["earth_obs"],"wikipedia_slug":null,"has_3d_model":false,"image_url":null,"decayed_at":null,"tle_current":{"epoch":"2026-05-25T04:01:28.550784Z","epoch_age_seconds":56453,"freshness":"FRESH","line1":"1 41240U 16002A   26145.16769156 -.00000052  00000+0  40931-4 0  9997","line2":"2 41240  66.0392 174.2320 0008535 273.5272  86.4771 12.87627391484282","mean_motion":12.87627391,"eccentricity":0.0008535,"inclination_deg":66.0392,"raan_deg":174.232,"arg_perigee_deg":273.5272,"mean_anomaly_deg":86.4771,"bstar":4.0931e-5,"rev_number":48428,"period_min":111.83359487885,"perigee_km":1304.3919997853,"apogee_km":1317.5172792139,"semimajor_km":7689.0916394996,"source":"CELESTRAK","updated_at":"2026-05-25T13:38:12.790774Z"}}}